Content
SEND FEEDBACK

Canada Flag

VICTORIA, BRITISH COLUMBIA


Home > North America > Canada > British Columbia
Elevation: 18 meters     Latitude: 48 39N     Longitude: 123 26W

WEATHER
 
SELECT A DAY
Number of Records: 215,128;   Date Range: 1/1/95 - 3/22/16
 
SHARE

PRINT THIS DATA

[ ← Previous Day ]
WEATHER ALMANAC - 15 SEPTEMBER, 2013
[ Next Day → ]
[ °F ]   °C
Weather ElementAverageHighLow
Temperature13.3 °C15 °C (2:00 pm)11 °C (2:00 am)
Dewpoint12.7 °C14 °C (5:38 pm)10 °C (4:00 am)
Humidity96.2 %100 % (2:00 am)82 % (2:00 pm)
Barometer1007.1 hPa1008.5 hPa (9:00 pm)1006.1 hPa (2:00 pm)
Wind Speed9 km/h42.6 km/h (5:38 pm)
Wind Gust64.9 km/h (5:38 pm)
Weather ElementAverage
Visibility14.8 km
Wind DirectionESE (113.6 °)

Weather ElementTotal
Precipitation---
Heating Degree Days5.3 (Base 18.3)
Growing Degree Days3 (Base 10)
Averaged from 45 records on 15 September, 2013
WEATHER CONDITIONS BREAKOUT
WIND DIRECTION BREAKOUT
WEATHER BY HOUR - 15 SEPTEMBER, 2013
[ °F ]   °C
Local TimeTemperatureDewpointHumidityBarometerVisibilityWind DirectionWind SpeedGust SpeedPrecipitationEventsConditions
1:00 AM12 °C11 °C94 %1007.8 hPa24.1 kmESE (120°)5.6 km/hClear
2:00 AM11 °C11 °C100 %1007.5 hPa19.3 kmCalmClear
3:00 AM12 °C11 °C94 %1007.5 hPa12.9 kmENE (70°)3.7 km/hClear
4:00 AM11 °C10 °C94 %1007.1 hPa6.4 kmCalmOvercast
5:00 AM12 °C11 °C94 %1006.8 hPa4.8 kmCalmOvercast
5:00 AM11.7 °C11.7 °C99 %1006.8 hPa4.8 kmENE (70°)1.9 km/hMist
5:29 AM12 °C12 °C100 %1006.8 hPa1.3 kmCalmOvercast
5:54 AM12 °C12 °C100 %1006.8 hPa0.6 kmSE (130°)3.7 km/hFogFog
6:00 AM12 °C12 °C100 %1006.8 hPa0.3 kmESE (110°)5.6 km/hFogFog
6:16 AM12 °C12 °C100 %1006.8 hPa0.2 kmSE (130°)3.7 km/hFogFog
7:00 AM12 °C12 °C100 %1006.8 hPa0.3 kmSE (140°)7.4 km/hFogFog
8:00 AM12 °C12 °C100 %1006.4 hPa0.2 kmSE (130°)5.6 km/hFogFog
9:00 AM13 °C13 °C100 %1006.4 hPa0.3 kmSE (140°)7.4 km/hFogFog
9:13 AM13 °C13 °C100 %1006.4 hPa0.8 kmESE (120°)5.6 km/hFogFog
10:00 AM13 °C13 °C100 %1006.4 hPa0.6 kmSE (140°)7.4 km/hFogFog
10:21 AM13 °C13 °C100 %1006.4 hPa0.8 kmESE (120°)7.4 km/hFogFog
10:42 AM13 °C13 °C100 %1006.8 hPa1.3 kmESE (120°)7.4 km/hOvercast
10:50 AM14 °C13 °C94 %1006.8 hPa1.6 kmEast (90°)11.1 km/hOvercast
11:00 AM13.3 °C12.2 °C93 %1006.8 hPa4.8 kmESE (120°)13 km/hMist
11:00 AM13 °C12 °C94 %1006.8 hPa4.8 kmESE (120°)16.7 km/hOvercast
11:19 AM13 °C12 °C94 %1007.1 hPa6.4 kmESE (120°)16.7 km/hOvercast
12:00 PM14 °C12 °C88 %1007.5 hPa32.2 kmESE (120°)13 km/hMostly Cloudy
1:00 PM14 °C13 °C94 %1007.1 hPa32.2 kmNE (50°)14.8 km/hOvercast
2:00 PM15 °C12 °C82 %1006.1 hPa48.3 kmEast (100°)22.2 km/hOvercast
3:00 PM15 °C13 °C88 %1007.5 hPa24.1 kmSE (130°)14.8 km/h33.3 km/hMostly Cloudy
3:48 PM14 °C13 °C94 %1007.8 hPa32.2 kmENE (70°)16.7 km/hRainLight Rain
4:00 PM14 °C13 °C94 %1007.8 hPa32.2 kmENE (60°)7.4 km/hRainLight Rain
4:17 PM14 °C13 °C94 %1007.5 hPa32.2 kmNE (50°)9.3 km/hOvercast
4:39 PM14 °C13 °C94 %1007.8 hPa32.2 kmESE (110°)5.6 km/hRainLight Rain
5:00 PM14.4 °C13.3 °C91 %1006.8 hPa30.6 kmNorth (350°)7.4 km/hRainLight Rain
5:00 PM14 °C13 °C94 %1006.8 hPa32.2 kmNNW (340°)7.4 km/hRainLight Rain
5:38 PM15 °C14 °C94 %1006.8 hPa16.1 kmSSE (160°)42.6 km/h64.9 km/hRain-ThunderstormLight Thunderstorms and Rain
6:00 PM14 °C14 °C100 %1007.5 hPa24.1 kmSSE (160°)16.7 km/hRainLight Rain
6:46 PM15 °C14 °C94 %1007.8 hPa24.1 kmNNE (30°)3.7 km/hRain-ThunderstormLight Thunderstorms and Rain
7:00 PM15 °C14 °C94 %1006.8 hPa12.9 kmNorth (360°)9.3 km/hRain-ThunderstormLight Thunderstorms and Rain
7:35 PM14 °C13 °C94 %1007.5 hPa12.9 kmEast (90°)16.7 km/hOvercast
7:48 PM13 °C13 °C100 %1007.8 hPa9.7 kmSouth (170°)9.3 km/hRainLight Rain
8:00 PM14 °C14 °C100 %1008.1 hPa16.1 kmSE (130°)11.1 km/hRainLight Rain
8:21 PM14 °C14 °C100 %1007.8 hPa32.2 kmEast (90°)7.4 km/hOvercast
9:00 PM14 °C14 °C100 %1008.5 hPa32.2 kmVariable3.7 km/hOvercast
9:36 PM14 °C14 °C100 %1008.5 hPa19.3 kmNNE (30°)3.7 km/hOvercast
10:00 PM14 °C14 °C100 %1008.1 hPa19.3 kmEast (100°)11.1 km/hOvercast
11:00 PM13.3 °C12.8 °C95 %1008.1 hPa8 kmSSE (150°)3.7 km/hMist
11:00 PM13 °C13 °C100 %1008.1 hPa8 kmSE (140°)3.7 km/hOvercast
11:38 PM14 °C13 °C94 %1008.1 hPa8 kmSE (130°)11.1 km/hRainLight Rain
Hourly data recorded from CYYJ, located 0 kilometers away from Victoria, British Columbia




STORIES FROM OUR PARTNERS